Date String (YYYY-MM-DD hh:mm:ss) UTC,Instrument flags,Ambient pressure (hPa),Sample flow (lpm),Bypass flow (lpm),Sample temperature (°C),Ambient temperature (°C),ASC tube jacket temperature (°C),LED temperature (°C),Box temperature (°C),Sample RH (%),Span deviation,Mass concentration (μg/m³),Mass concentration (μg/m³),Mass concentration (μg/m³)
DateTimeUTC,F1_M11,P_M11,Q1_M11,Q2_M11,T1_M11,T2_M11,T3_M11,T4_M11,T5_M11,U1_M11,ZSPAN_M11,X2_M11,X0_M11,X1_M11
2022-03-11 22:00:00,,0827.3,5.00,0.00,23.3,22.6,00.0,32.3,25.1,07.8,0000.7,0010.95,0018.93,0010.33
2022-03-11 22:01:00,,0827.4,5.00,0.00,23.3,22.6,00.0,32.3,25.1,07.7,0001.2,0010.87,0018.58,0010.29
2022-03-11 22:02:00,,0827.4,5.00,0.00,23.3,22.6,00.0,32.3,25.1,07.3,0000.7,0010.86,0018.59,0010.25
2022-03-11 22:03:00,,0827.4,5.02,0.00,23.3,22.6,00.0,32.3,25.1,07.2,0000.0,0010.84,0018.37,0010.24
2022-03-11 22:04:00,,0827.3,5.00,0.00,23.3,22.6,00.0,32.3,25.1,07.3,0000.1,0010.86,0018.21,0010.25
2022-03-11 22:05:00,,0827.3,5.00,0.00,23.3,22.7,00.0,32.3,25.1,07.4,0000.5,0010.85,0018.22,0010.25
2022-03-11 22:06:00,,0827.3,4.99,0.00,23.3,22.7,00.0,32.3,25.1,07.2,0000.5,0010.84,0017.80,0010.22
2022-03-11 22:07:00,,0827.3,5.00,0.00,23.3,22.7,00.0,32.3,25.1,07.0,0000.4,0010.78,0017.12,0010.18
2022-03-11 22:08:00,,0827.3,5.00,0.00,23.3,22.7,00.0,32.3,25.1,07.1,0000.3,0010.76,0018.19,0010.13
2022-03-11 22:09:00,,0827.3,5.00,0.00,23.3,22.7,00.0,32.3,25.1,07.1,0001.2,0010.72,0018.28,0010.09
2022-03-11 22:10:00,,0827.3,4.99,0.00,23.4,22.7,00.0,32.3,25.1,07.2,0000.6,0010.62,0018.63,0010.01
2022-03-11 22:11:00,,0827.4,4.99,0.00,23.4,22.7,00.0,32.3,25.1,07.2,-000.0,0010.49,0017.65,0009.92
2022-03-11 22:12:00,,0827.4,5.00,0.00,23.4,22.7,00.0,32.3,25.1,07.2,-000.3,0010.46,0018.21,0009.86
2022-03-11 22:13:00,,0827.4,5.01,0.00,23.4,22.7,00.0,32.3,25.1,07.2,-000.6,0010.41,0018.27,0009.80
2022-03-11 22:14:00,,0827.3,5.00,0.00,23.4,22.7,00.0,32.3,25.1,07.3,-000.5,0010.31,0018.12,0009.72
2022-03-11 22:15:00,,0827.3,4.99,0.00,23.4,22.7,00.0,32.3,25.1,07.3,-000.6,0010.22,0018.03,0009.66
2022-03-11 22:16:00,,0827.3,5.01,0.00,23.4,22.7,00.0,32.3,25.2,07.5,-001.1,0010.17,0018.04,0009.60
2022-03-11 22:17:00,,0827.2,4.99,0.00,23.4,22.7,00.0,32.3,25.2,07.3,-001.0,0010.16,0018.16,0009.57
2022-03-11 22:18:00,,0827.2,5.00,0.00,23.4,22.7,00.0,32.3,25.2,07.4,-001.2,0010.15,0017.88,0009.55
2022-03-11 22:19:00,,0827.5,5.01,0.00,23.4,22.7,00.0,32.3,25.2,07.1,-001.2,0010.19,0017.19,0009.57
2022-03-11 22:20:00,,0827.8,4.99,0.00,23.4,22.7,00.0,32.3,25.2,07.3,-001.8,0010.23,0017.03,0009.61
2022-03-11 22:21:00,,0827.6,4.99,0.00,23.4,22.7,00.0,32.3,25.2,07.2,-002.0,0010.23,0016.34,0009.64
2022-03-11 22:22:00,,0827.7,5.02,0.00,23.4,22.8,00.0,32.3,25.2,07.4,-002.1,0010.26,0016.12,0009.68
2022-03-11 22:23:00,,0827.7,5.00,0.00,23.4,22.8,00.0,32.4,25.2,07.5,-002.1,0010.26,0015.37,0009.71
2022-03-11 22:24:00,,0827.4,4.99,0.00,23.5,22.8,00.0,32.4,25.2,07.4,-001.9,0010.24,0015.02,0009.74
2022-03-11 22:25:00,,0827.6,5.01,0.00,23.4,22.8,00.0,32.4,25.2,07.1,-001.7,0010.26,0015.02,0009.75
2022-03-11 22:26:00,,0827.7,4.99,0.00,23.4,22.8,00.0,32.4,25.2,07.0,-001.2,0010.26,0015.03,0009.75
2022-03-11 22:27:00,,0827.6,4.99,0.00,23.5,22.8,00.0,32.4,25.2,07.0,-001.1,0010.24,0014.91,0009.74
2022-03-11 22:28:00,,0827.7,4.99,0.00,23.5,22.8,00.0,32.4,25.2,07.0,-001.0,0010.22,0014.72,0009.75
2022-03-11 22:29:00,,0827.7,5.01,0.00,23.5,22.8,00.0,32.4,25.2,07.2,-000.7,0010.25,0014.62,0009.78
2022-03-11 22:30:00,,0827.2,5.00,0.00,23.5,22.8,00.0,32.4,25.3,07.2,-000.0,0010.19,0014.31,0009.75
2022-03-11 22:31:00,,0827.3,4.99,0.00,23.5,22.8,00.0,32.4,25.3,07.2,0000.2,0010.12,0013.93,0009.69
2022-03-11 22:32:00,,0827.1,4.99,0.00,23.5,22.8,00.0,32.4,25.2,07.3,0000.7,0010.09,0014.89,0009.63
2022-03-11 22:33:00,,0827.1,5.00,0.00,23.5,22.8,00.0,32.4,25.3,07.2,0001.6,0010.09,0015.09,0009.58
2022-03-11 22:34:00,,0827.6,5.01,0.00,23.5,22.8,00.0,32.4,25.3,07.1,0002.1,0010.09,0015.19,0009.52
2022-03-11 22:35:00,,0827.5,4.99,0.00,23.5,22.8,00.0,32.4,25.3,07.4,0002.7,0010.07,0015.22,0009.48
2022-03-11 22:36:00,,0827.7,5.00,0.00,23.5,22.8,00.0,32.4,25.3,07.6,0002.5,0010.04,0015.17,0009.44
2022-03-11 22:37:00,,0827.3,5.01,0.00,23.5,22.8,00.0,32.4,25.3,07.4,0002.3,0010.03,0015.13,0009.45
2022-03-11 22:38:00,,0827.2,5.01,0.00,23.5,22.8,00.0,32.4,25.2,07.1,0002.6,0010.05,0015.51,0009.46
2022-03-11 22:39:00,,0827.2,5.00,0.00,23.5,22.8,00.0,32.4,25.2,07.1,0002.7,0010.09,0015.72,0009.48
2022-03-11 22:40:00,,0827.2,4.99,0.00,23.4,22.7,00.0,32.4,25.1,07.2,0003.0,0010.09,0015.88,0009.47
2022-03-11 22:41:00,,0827.3,5.00,0.00,23.4,22.7,00.0,32.4,25.1,07.8,0002.9,0010.08,0016.56,0009.46
2022-03-11 22:42:00,,0827.8,5.02,0.00,23.4,22.7,00.0,32.4,25.1,07.7,0002.0,0010.06,0016.71,0009.44
2022-03-11 22:43:00,,0827.8,5.00,0.00,23.4,22.7,00.0,32.4,25.1,07.3,0001.0,0010.03,0015.88,0009.44
2022-03-11 22:44:00,,0827.4,4.99,0.00,23.4,22.7,00.0,32.4,25.1,07.3,0000.1,0009.99,0015.59,0009.44
2022-03-11 22:45:00,,0827.2,5.00,0.00,23.4,22.7,00.0,32.4,25.1,07.6,0000.7,0009.99,0015.56,0009.43
2022-03-11 22:46:00,,0827.3,5.01,0.00,23.4,22.7,00.0,32.4,25.1,07.3,0001.5,0010.00,0015.59,0009.42
2022-03-11 22:47:00,,0827.4,5.02,0.00,23.4,22.7,00.0,32.4,25.1,07.2,0001.3,0010.03,0015.77,0009.41
2022-03-11 22:48:00,,0827.4,5.01,0.00,23.4,22.7,00.0,32.4,25.1,07.4,0001.3,0010.06,0016.24,0009.38
2022-03-11 22:49:00,,0827.4,4.99,0.00,23.4,22.6,00.0,32.4,25.1,07.2,0000.6,0010.04,0015.89,0009.35
2022-03-11 22:50:00,,0827.4,5.00,0.00,23.3,22.6,00.0,32.4,25.1,07.2,0000.6,0009.99,0015.74,0009.31
2022-03-11 22:51:00,,0827.4,4.99,0.00,23.3,22.6,00.0,32.4,25.0,07.3,0000.4,0009.99,0015.74,0009.28
2022-03-11 22:52:00,,0827.4,5.02,0.00,23.3,22.6,00.0,32.4,25.0,07.4,0000.3,0009.98,0015.13,0009.27
2022-03-11 22:53:00,,0827.4,5.00,0.00,23.3,22.6,00.0,32.4,25.1,07.5,0000.8,0009.98,0015.27,0009.23
2022-03-11 22:54:00,,0827.4,4.99,0.00,23.3,22.6,00.0,32.3,25.1,07.6,0001.3,0009.95,0015.56,0009.17
2022-03-11 22:55:00,,0827.3,5.01,0.00,23.3,22.6,00.0,32.3,25.1,07.3,0001.2,0009.93,0015.67,0009.09
2022-03-11 22:56:00,,0827.3,4.99,0.00,23.3,22.6,00.0,32.3,25.1,07.3,0000.8,0009.87,0015.81,0009.03
2022-03-11 22:57:00,,0827.4,5.00,0.00,23.3,22.6,00.0,32.3,25.1,07.2,0000.6,0009.81,0016.15,0008.97
2022-03-11 22:58:00,,0827.4,5.01,0.00,23.3,22.7,00.0,32.3,25.1,07.2,0000.7,0009.81,0016.73,0008.89
2022-03-11 22:59:00,,0827.4,5.00,0.00,23.3,22.6,00.0,32.3,25.1,07.2,0000.8,0009.68,0016.21,0008.82
